Location: Berlin
(42.3812°N, 71.6370°W)
Time: 23:45:28
(UTC+00:00)

Cosmos 1447 Rocket - Pass Details

Date: 15 November 2025
Orbit: 954 x 994 km, 82.9° (Epoch: 09 December)

Event Time Altitude Azimuth Distance (km) Brightness Sun altitude
Rises 09:42:20 0° 188° (S) 3,652 7.5 -21.3°
Reaches altitude 10° 09:44:49 10° 189° (S) 2,715 6.8 -20.8°
Maximum altitude 09:51:03 83° 277° (W) 996 4.4 -19.7°
Drops below altitude 10° 09:57:24 10° 6° (N) 2,759 6.8 -18.5°
Sets 09:59:57 0° 8° (N) 3,715 7.5 -18.1°
